iso_date,Year,Hour,Min,DOY,POS_DOY,Lat,Lon,BP,Ts,Ta,has_bp,has_ts,has_ta,BuoyID,Buoy_Type,Buoy_Owner,Logistics,Hemisphere
2021-11-23T16:00:02Z,2021,16,0,327.6667,327.6667,62.718,-61.549,-999.0,0.65,-999.0,no,yes,no,300234068345690,SVPGHI,AOML,UNKNOWN,North
2021-11-23T16:59:57Z,2021,17,0,327.7083,327.7083,62.725,-61.528,-999.0,0.62,-999.0,no,yes,no,300234068345690,SVPGHI,AOML,UNKNOWN,North
2021-11-23T18:04:01Z,2021,18,4,327.7528,327.7528,62.728,-61.492,-999.0,0.51,-999.0,no,yes,no,300234068345690,SVPGHI,AOML,UNKNOWN,North
2021-11-23T19:03:56Z,2021,19,4,327.7944,327.7944,62.722,-61.456,-999.0,0.36,-999.0,no,yes,no,300234068345690,SVPGHI,AOML,UNKNOWN,North
2021-11-23T20:00:57Z,2021,20,1,327.834,327.834,62.712,-61.435,-999.0,0.05,-999.0,no,yes,no,300234068345690,SVPGHI,AOML,UNKNOWN,North
2021-11-23T21:00:00Z,2021,21,0,327.875,327.875,62.698,-61.428,-999.0,-0.1,-999.0,no,yes,no,300234068345690,SVPGHI,AOML,UNKNOWN,North
2021-11-23T22:01:03Z,2021,22,1,327.9174,327.9174,62.679,-61.436,-999.0,0.01,-999.0,no,yes,no,300234068345690,SVPGHI,AOML,UNKNOWN,North
2021-11-23T23:03:59Z,2021,23,4,327.9611,327.9611,-90.0,-180.0,-999.0,0.1,-999.0,no,yes,no,300234068345690,SVPGHI,AOML,UNKNOWN,North
2021-11-24T00:04:01Z,2021,0,4,328.0028,328.0028,-90.0,-180.0,-999.0,0.16,-999.0,no,yes,no,300234068345690,SVPGHI,AOML,UNKNOWN,North
2021-11-24T01:03:56Z,2021,1,4,328.0444,328.0444,62.647,-61.453,-999.0,0.25,-999.0,no,yes,no,300234068345690,SVPGHI,AOML,UNKNOWN,North
2021-11-24T01:59:57Z,2021,2,0,328.0833,328.0833,62.641,-61.443,-999.0,0.25,-999.0,no,yes,no,300234068345690,SVPGHI,AOML,UNKNOWN,North
2021-11-24T03:00:00Z,2021,3,0,328.125,328.125,62.632,-61.422,-999.0,0.28,-999.0,no,yes,no,300234068345690,SVPGHI,AOML,UNKNOWN,North
2021-11-24T04:03:04Z,2021,4,3,328.1688,328.1688,62.622,-61.387,-999.0,0.27,-999.0,no,yes,no,300234068345690,SVPGHI,AOML,UNKNOWN,North
2021-11-24T04:59:57Z,2021,5,0,328.2083,328.2083,62.609,-61.355,-999.0,0.28,-999.0,no,yes,no,300234068345690,SVPGHI,AOML,UNKNOWN,North
2021-11-24T06:01:00Z,2021,6,1,328.2507,328.2507,62.594,-61.323,-999.0,0.28,-999.0,no,yes,no,300234068345690,SVPGHI,AOML,UNKNOWN,North
2021-11-24T07:00:02Z,2021,7,0,328.2917,328.2917,62.577,-61.293,-999.0,0.27,-999.0,no,yes,no,300234068345690,SVPGHI,AOML,UNKNOWN,North
2021-11-24T08:02:58Z,2021,8,3,328.3354,328.3354,62.556,-61.27,-999.0,0.27,-999.0,no,yes,no,300234068345690,SVPGHI,AOML,UNKNOWN,North
2021-11-24T10:03:56Z,2021,10,4,328.4194,328.4194,-90.0,-180.0,-999.0,0.28,-999.0,no,yes,no,300234068345690,SVPGHI,AOML,UNKNOWN,North
2021-11-24T11:02:58Z,2021,11,3,328.4604,328.4604,62.498,-61.3,-999.0,0.28,-999.0,no,yes,no,300234068345690,SVPGHI,AOML,UNKNOWN,North
2021-11-24T12:01:00Z,2021,12,1,328.5007,328.5007,62.485,-61.322,-999.0,0.28,-999.0,no,yes,no,300234068345690,SVPGHI,AOML,UNKNOWN,North
2021-11-24T13:00:02Z,2021,13,0,328.5417,328.5417,62.474,-61.343,-999.0,0.3,-999.0,no,yes,no,300234068345690,SVPGHI,AOML,UNKNOWN,North
2021-11-24T14:00:57Z,2021,14,1,328.584,328.584,62.466,-61.357,-999.0,0.3,-999.0,no,yes,no,300234068345690,SVPGHI,AOML,UNKNOWN,North
2021-11-24T15:00:00Z,2021,15,0,328.625,328.625,62.462,-61.355,-999.0,0.31,-999.0,no,yes,no,300234068345690,SVPGHI,AOML,UNKNOWN,North
2021-11-24T16:00:02Z,2021,16,0,328.6667,328.6667,62.457,-61.343,-999.0,0.35,-999.0,no,yes,no,300234068345690,SVPGHI,AOML,UNKNOWN,North
2021-11-24T17:02:58Z,2021,17,3,328.7104,328.7104,62.448,-61.334,-999.0,0.36,-999.0,no,yes,no,300234068345690,SVPGHI,AOML,UNKNOWN,North
2021-11-24T18:04:01Z,2021,18,4,328.7528,328.7528,62.439,-61.322,-999.0,0.35,-999.0,no,yes,no,300234068345690,SVPGHI,AOML,UNKNOWN,North
2021-11-24T19:01:03Z,2021,19,1,328.7924,328.7924,62.43,-61.311,-999.0,0.34,-999.0,no,yes,no,300234068345690,SVPGHI,AOML,UNKNOWN,North
2021-11-24T19:59:57Z,2021,20,0,328.8333,328.8333,62.42,-61.307,-999.0,0.32,-999.0,no,yes,no,300234068345690,SVPGHI,AOML,UNKNOWN,North
2021-11-24T21:00:00Z,2021,21,0,328.875,328.875,62.411,-61.314,-999.0,0.33,-999.0,no,yes,no,300234068345690,SVPGHI,AOML,UNKNOWN,North
2021-11-24T22:00:02Z,2021,22,0,328.9167,328.9167,62.402,-61.318,-999.0,0.33,-999.0,no,yes,no,300234068345690,SVPGHI,AOML,UNKNOWN,North
2021-11-24T22:59:57Z,2021,23,0,328.9583,328.9583,62.394,-61.34,-999.0,0.32,-999.0,no,yes,no,300234068345690,SVPGHI,AOML,UNKNOWN,North
2021-11-25T00:00:00Z,2021,0,0,329.0,329.0,62.387,-61.358,-999.0,0.3,-999.0,no,yes,no,300234068345690,SVPGHI,AOML,UNKNOWN,North
2021-11-25T01:00:02Z,2021,1,0,329.0417,329.0417,62.382,-61.374,-999.0,0.3,-999.0,no,yes,no,300234068345690,SVPGHI,AOML,UNKNOWN,North
2021-11-25T01:59:57Z,2021,2,0,329.0833,329.0833,62.374,-61.385,-999.0,0.28,-999.0,no,yes,no,300234068345690,SVPGHI,AOML,UNKNOWN,North
2021-11-25T03:00:00Z,2021,3,0,329.125,329.125,62.365,-61.389,-999.0,0.28,-999.0,no,yes,no,300234068345690,SVPGHI,AOML,UNKNOWN,North
2021-11-25T04:00:02Z,2021,4,0,329.1667,329.1667,62.358,-61.387,-999.0,0.29,-999.0,no,yes,no,300234068345690,SVPGHI,AOML,UNKNOWN,North
2021-11-25T04:59:57Z,2021,5,0,329.2083,329.2083,62.35,-61.377,-999.0,0.29,-999.0,no,yes,no,300234068345690,SVPGHI,AOML,UNKNOWN,North
2021-11-25T06:00:00Z,2021,6,0,329.25,329.25,62.341,-61.364,-999.0,0.32,-999.0,no,yes,no,300234068345690,SVPGHI,AOML,UNKNOWN,North
2021-11-25T07:00:02Z,2021,7,0,329.2917,329.2917,62.333,-61.351,-999.0,0.33,-999.0,no,yes,no,300234068345690,SVPGHI,AOML,UNKNOWN,North
2021-11-25T07:59:57Z,2021,8,0,329.3333,329.3333,62.328,-61.335,-999.0,0.33,-999.0,no,yes,no,300234068345690,SVPGHI,AOML,UNKNOWN,North
2021-11-25T09:00:00Z,2021,9,0,329.375,329.375,62.318,-61.328,-999.0,0.35,-999.0,no,yes,no,300234068345690,SVPGHI,AOML,UNKNOWN,North
2021-11-25T10:00:02Z,2021,10,0,329.4167,329.4167,62.308,-61.322,-999.0,0.35,-999.0,no,yes,no,300234068345690,SVPGHI,AOML,UNKNOWN,North
2021-11-25T13:00:02Z,2021,13,0,329.5417,329.5417,62.27,-61.363,-999.0,0.33,-999.0,no,yes,no,300234068345690,SVPGHI,AOML,UNKNOWN,North
2021-11-25T13:59:57Z,2021,14,0,329.5833,329.5833,62.259,-61.394,-999.0,0.32,-999.0,no,yes,no,300234068345690,SVPGHI,AOML,UNKNOWN,North
2021-11-25T15:00:00Z,2021,15,0,329.625,329.625,62.256,-61.425,-999.0,0.32,-999.0,no,yes,no,300234068345690,SVPGHI,AOML,UNKNOWN,North
2021-11-25T18:00:00Z,2021,18,0,329.75,329.75,62.256,-61.461,-999.0,0.3,-999.0,no,yes,no,300234068345690,SVPGHI,AOML,UNKNOWN,North
2021-11-25T19:02:03Z,2021,19,2,329.7931,329.7931,62.259,-61.457,-999.0,0.3,-999.0,no,yes,no,300234068345690,SVPGHI,AOML,UNKNOWN,North
2021-11-25T19:59:57Z,2021,20,0,329.8333,329.8333,62.262,-61.447,-999.0,0.26,-999.0,no,yes,no,300234068345690,SVPGHI,AOML,UNKNOWN,North
2021-11-25T21:00:00Z,2021,21,0,329.875,329.875,62.263,-61.44,-999.0,0.14,-999.0,no,yes,no,300234068345690,SVPGHI,AOML,UNKNOWN,North
2021-11-25T22:01:03Z,2021,22,1,329.9174,329.9174,62.259,-61.436,-999.0,0.12,-999.0,no,yes,no,300234068345690,SVPGHI,AOML,UNKNOWN,North
2021-11-25T22:59:57Z,2021,23,0,329.9583,329.9583,62.251,-61.442,-999.0,0.1,-999.0,no,yes,no,300234068345690,SVPGHI,AOML,UNKNOWN,North
2021-11-26T00:00:00Z,2021,0,0,330.0,330.0,62.242,-61.457,-999.0,0.09,-999.0,no,yes,no,300234068345690,SVPGHI,AOML,UNKNOWN,North
2021-11-26T01:59:57Z,2021,2,0,330.0833,330.0833,62.226,-61.51,-999.0,0.07,-999.0,no,yes,no,300234068345690,SVPGHI,AOML,UNKNOWN,North
2021-11-26T03:00:00Z,2021,3,0,330.125,330.125,62.22,-61.536,-999.0,0.05,-999.0,no,yes,no,300234068345690,SVPGHI,AOML,UNKNOWN,North
2021-11-26T04:00:02Z,2021,4,0,330.1667,330.1667,62.213,-61.556,-999.0,-0.1,-999.0,no,yes,no,300234068345690,SVPGHI,AOML,UNKNOWN,North
2021-11-26T04:59:57Z,2021,5,0,330.2083,330.2083,62.212,-61.567,-999.0,-0.13,-999.0,no,yes,no,300234068345690,SVPGHI,AOML,UNKNOWN,North
2021-11-26T06:00:00Z,2021,6,0,330.25,330.25,62.213,-61.57,-999.0,-0.17,-999.0,no,yes,no,300234068345690,SVPGHI,AOML,UNKNOWN,North
2021-11-26T07:00:02Z,2021,7,0,330.2917,330.2917,62.212,-61.566,-999.0,-0.3,-999.0,no,yes,no,300234068345690,SVPGHI,AOML,UNKNOWN,North
2021-11-26T07:59:57Z,2021,8,0,330.3333,330.3333,62.213,-61.558,-999.0,-0.32,-999.0,no,yes,no,300234068345690,SVPGHI,AOML,UNKNOWN,North
2021-11-26T09:00:00Z,2021,9,0,330.375,330.375,62.212,-61.547,-999.0,-0.31,-999.0,no,yes,no,300234068345690,SVPGHI,AOML,UNKNOWN,North
2021-11-26T10:00:02Z,2021,10,0,330.4167,330.4167,62.205,-61.536,-999.0,-0.34,-999.0,no,yes,no,300234068345690,SVPGHI,AOML,UNKNOWN,North
2021-11-26T13:00:02Z,2021,13,0,330.5417,330.5417,62.169,-61.57,-999.0,-0.25,-999.0,no,yes,no,300234068345690,SVPGHI,AOML,UNKNOWN,North
2021-11-26T13:59:57Z,2021,14,0,330.5833,330.5833,62.157,-61.599,-999.0,-0.21,-999.0,no,yes,no,300234068345690,SVPGHI,AOML,UNKNOWN,North
2021-11-26T15:00:00Z,2021,15,0,330.625,330.625,62.15,-61.644,-999.0,-0.16,-999.0,no,yes,no,300234068345690,SVPGHI,AOML,UNKNOWN,North
2021-11-26T16:00:02Z,2021,16,0,330.6667,330.6667,62.149,-61.678,-999.0,-0.04,-999.0,no,yes,no,300234068345690,SVPGHI,AOML,UNKNOWN,North
2021-11-26T16:59:57Z,2021,17,0,330.7083,330.7083,62.155,-61.701,-999.0,0.01,-999.0,no,yes,no,300234068345690,SVPGHI,AOML,UNKNOWN,North
2021-11-26T18:00:00Z,2021,18,0,330.75,330.75,62.165,-61.709,-999.0,-0.15,-999.0,no,yes,no,300234068345690,SVPGHI,AOML,UNKNOWN,North
2021-11-26T19:00:02Z,2021,19,0,330.7917,330.7917,62.173,-61.702,-999.0,-0.22,-999.0,no,yes,no,300234068345690,SVPGHI,AOML,UNKNOWN,North
2021-11-26T19:59:57Z,2021,20,0,330.8333,330.8333,62.18,-61.688,-999.0,-0.24,-999.0,no,yes,no,300234068345690,SVPGHI,AOML,UNKNOWN,North
2021-11-26T21:00:00Z,2021,21,0,330.875,330.875,62.179,-61.673,-999.0,-0.19,-999.0,no,yes,no,300234068345690,SVPGHI,AOML,UNKNOWN,North
2021-11-26T22:00:02Z,2021,22,0,330.9167,330.9167,62.177,-61.66,-999.0,-0.18,-999.0,no,yes,no,300234068345690,SVPGHI,AOML,UNKNOWN,North
2021-11-26T22:59:57Z,2021,23,0,330.9583,330.9583,62.171,-61.659,-999.0,-0.16,-999.0,no,yes,no,300234068345690,SVPGHI,AOML,UNKNOWN,North
2021-11-27T00:00:00Z,2021,0,0,331.0,331.0,62.16,-61.669,-999.0,-0.11,-999.0,no,yes,no,300234068345690,SVPGHI,AOML,UNKNOWN,North
2021-11-27T01:00:02Z,2021,1,0,331.0417,331.0417,62.15,-61.691,-999.0,-0.05,-999.0,no,yes,no,300234068345690,SVPGHI,AOML,UNKNOWN,North
2021-11-27T01:59:57Z,2021,2,0,331.0833,331.0833,62.136,-61.721,-999.0,0.0,-999.0,no,yes,no,300234068345690,SVPGHI,AOML,UNKNOWN,North
2021-11-27T03:00:00Z,2021,3,0,331.125,331.125,62.131,-61.76,-999.0,0.02,-999.0,no,yes,no,300234068345690,SVPGHI,AOML,UNKNOWN,North
2021-11-27T04:03:04Z,2021,4,3,331.1688,331.1688,62.136,-61.798,-999.0,0.04,-999.0,no,yes,no,300234068345690,SVPGHI,AOML,UNKNOWN,North
2021-11-27T04:59:57Z,2021,5,0,331.2083,331.2083,62.144,-61.819,-999.0,0.05,-999.0,no,yes,no,300234068345690,SVPGHI,AOML,UNKNOWN,North
2021-11-27T06:00:00Z,2021,6,0,331.25,331.25,62.153,-61.829,-999.0,0.07,-999.0,no,yes,no,300234068345690,SVPGHI,AOML,UNKNOWN,North
2021-11-27T07:00:02Z,2021,7,0,331.2917,331.2917,62.158,-61.824,-999.0,0.1,-999.0,no,yes,no,300234068345690,SVPGHI,AOML,UNKNOWN,North
2021-11-27T07:59:57Z,2021,8,0,331.3333,331.3333,62.158,-61.808,-999.0,0.13,-999.0,no,yes,no,300234068345690,SVPGHI,AOML,UNKNOWN,North
2021-11-27T09:00:00Z,2021,9,0,331.375,331.375,62.152,-61.795,-999.0,0.14,-999.0,no,yes,no,300234068345690,SVPGHI,AOML,UNKNOWN,North
2021-11-27T10:00:02Z,2021,10,0,331.4167,331.4167,62.143,-61.789,-999.0,0.16,-999.0,no,yes,no,300234068345690,SVPGHI,AOML,UNKNOWN,North
2021-11-27T12:00:00Z,2021,12,0,331.5,331.5,62.12,-61.814,-999.0,0.2,-999.0,no,yes,no,300234068345690,SVPGHI,AOML,UNKNOWN,North
2021-11-27T13:01:03Z,2021,13,1,331.5424,331.5424,62.105,-61.852,-999.0,0.27,-999.0,no,yes,no,300234068345690,SVPGHI,AOML,UNKNOWN,North
2021-11-27T13:59:57Z,2021,14,0,331.5833,331.5833,62.095,-61.897,-999.0,0.27,-999.0,no,yes,no,300234068345690,SVPGHI,AOML,UNKNOWN,North
2021-11-27T15:00:00Z,2021,15,0,331.625,331.625,62.093,-61.945,-999.0,0.29,-999.0,no,yes,no,300234068345690,SVPGHI,AOML,UNKNOWN,North
2021-11-27T16:02:03Z,2021,16,2,331.6681,331.6681,62.095,-61.992,-999.0,0.3,-999.0,no,yes,no,300234068345690,SVPGHI,AOML,UNKNOWN,North
2021-11-27T17:00:57Z,2021,17,1,331.709,331.709,62.105,-62.024,-999.0,0.31,-999.0,no,yes,no,300234068345690,SVPGHI,AOML,UNKNOWN,North
2021-11-27T19:03:04Z,2021,19,3,331.7938,331.7938,62.115,-62.039,-999.0,0.33,-999.0,no,yes,no,300234068345690,SVPGHI,AOML,UNKNOWN,North
2021-11-27T20:00:57Z,2021,20,1,331.834,331.834,62.121,-62.044,-999.0,0.35,-999.0,no,yes,no,300234068345690,SVPGHI,AOML,UNKNOWN,North
2021-11-27T21:01:00Z,2021,21,1,331.8757,331.8757,62.123,-62.042,-999.0,0.37,-999.0,no,yes,no,300234068345690,SVPGHI,AOML,UNKNOWN,North
2021-11-27T22:00:02Z,2021,22,0,331.9167,331.9167,62.118,-62.042,-999.0,0.37,-999.0,no,yes,no,300234068345690,SVPGHI,AOML,UNKNOWN,North
2021-11-27T22:59:57Z,2021,23,0,331.9583,331.9583,62.113,-62.054,-999.0,0.43,-999.0,no,yes,no,300234068345690,SVPGHI,AOML,UNKNOWN,North
2021-11-28T00:03:01Z,2021,0,3,332.0021,332.0021,62.108,-62.072,-999.0,0.44,-999.0,no,yes,no,300234068345690,SVPGHI,AOML,UNKNOWN,North
2021-11-28T01:01:03Z,2021,1,1,332.0424,332.0424,62.1,-62.102,-999.0,0.48,-999.0,no,yes,no,300234068345690,SVPGHI,AOML,UNKNOWN,North
2021-11-28T01:59:57Z,2021,2,0,332.0833,332.0833,62.098,-62.135,-999.0,0.52,-999.0,no,yes,no,300234068345690,SVPGHI,AOML,UNKNOWN,North
2021-11-28T03:00:00Z,2021,3,0,332.125,332.125,62.097,-62.171,-999.0,0.58,-999.0,no,yes,no,300234068345690,SVPGHI,AOML,UNKNOWN,North
2021-11-28T04:02:03Z,2021,4,2,332.1681,332.1681,62.096,-62.205,-999.0,0.62,-999.0,no,yes,no,300234068345690,SVPGHI,AOML,UNKNOWN,North
2021-11-28T05:00:57Z,2021,5,1,332.209,332.209,62.097,-62.242,-999.0,0.66,-999.0,no,yes,no,300234068345690,SVPGHI,AOML,UNKNOWN,North
2021-11-28T06:00:00Z,2021,6,0,332.25,332.25,62.097,-62.273,-999.0,0.69,-999.0,no,yes,no,300234068345690,SVPGHI,AOML,UNKNOWN,North
2021-11-28T07:00:02Z,2021,7,0,332.2917,332.2917,62.098,-62.295,-999.0,0.71,-999.0,no,yes,no,300234068345690,SVPGHI,AOML,UNKNOWN,North
2021-11-28T07:59:57Z,2021,8,0,332.3333,332.3333,62.098,-62.311,-999.0,0.71,-999.0,no,yes,no,300234068345690,SVPGHI,AOML,UNKNOWN,North
2021-11-28T09:00:00Z,2021,9,0,332.375,332.375,62.1,-62.319,-999.0,0.73,-999.0,no,yes,no,300234068345690,SVPGHI,AOML,UNKNOWN,North
2021-11-28T10:00:02Z,2021,10,0,332.4167,332.4167,62.101,-62.325,-999.0,0.73,-999.0,no,yes,no,300234068345690,SVPGHI,AOML,UNKNOWN,North
2021-11-28T13:03:04Z,2021,13,3,332.5438,332.5438,62.086,-62.368,-999.0,0.74,-999.0,no,yes,no,300234068345690,SVPGHI,AOML,UNKNOWN,North
2021-11-28T13:59:57Z,2021,14,0,332.5833,332.5833,62.084,-62.392,-999.0,0.74,-999.0,no,yes,no,300234068345690,SVPGHI,AOML,UNKNOWN,North
2021-11-28T15:00:00Z,2021,15,0,332.625,332.625,62.081,-62.423,-999.0,0.74,-999.0,no,yes,no,300234068345690,SVPGHI,AOML,UNKNOWN,North
2021-11-28T16:03:04Z,2021,16,3,332.6688,332.6688,62.077,-62.461,-999.0,0.74,-999.0,no,yes,no,300234068345690,SVPGHI,AOML,UNKNOWN,North
2021-11-28T17:03:59Z,2021,17,4,332.7111,332.7111,62.073,-62.498,-999.0,0.73,-999.0,no,yes,no,300234068345690,SVPGHI,AOML,UNKNOWN,North
2021-11-28T18:00:00Z,2021,18,0,332.75,332.75,62.069,-62.534,-999.0,0.73,-999.0,no,yes,no,300234068345690,SVPGHI,AOML,UNKNOWN,North
2021-11-28T19:01:03Z,2021,19,1,332.7924,332.7924,62.068,-62.571,-999.0,0.72,-999.0,no,yes,no,300234068345690,SVPGHI,AOML,UNKNOWN,North
2021-11-28T19:59:57Z,2021,20,0,332.8333,332.8333,62.072,-62.603,-999.0,0.72,-999.0,no,yes,no,300234068345690,SVPGHI,AOML,UNKNOWN,North
2021-11-28T21:04:01Z,2021,21,4,332.8778,332.8778,-90.0,-180.0,-999.0,0.72,-999.0,no,yes,no,300234068345690,SVPGHI,AOML,UNKNOWN,North
2021-11-28T22:03:56Z,2021,22,4,332.9194,332.9194,-90.0,-180.0,-999.0,0.73,-999.0,no,yes,no,300234068345690,SVPGHI,AOML,UNKNOWN,North
2021-11-28T23:02:58Z,2021,23,3,332.9604,332.9604,62.081,-62.648,-999.0,0.73,-999.0,no,yes,no,300234068345690,SVPGHI,AOML,UNKNOWN,North
2021-11-29T00:00:00Z,2021,0,0,333.0,333.0,62.086,-62.656,-999.0,0.72,-999.0,no,yes,no,300234068345690,SVPGHI,AOML,UNKNOWN,North
2021-11-29T01:03:56Z,2021,1,4,333.0444,333.0444,-90.0,-180.0,-999.0,0.73,-999.0,no,yes,no,300234068345690,SVPGHI,AOML,UNKNOWN,North
2021-11-29T02:00:57Z,2021,2,1,333.084,333.084,62.089,-62.684,-999.0,0.72,-999.0,no,yes,no,300234068345690,SVPGHI,AOML,UNKNOWN,North
2021-11-29T03:01:00Z,2021,3,1,333.1257,333.1257,62.088,-62.703,-999.0,0.7,-999.0,no,yes,no,300234068345690,SVPGHI,AOML,UNKNOWN,North
2021-11-29T04:00:02Z,2021,4,0,333.1667,333.1667,62.085,-62.721,-999.0,0.67,-999.0,no,yes,no,300234068345690,SVPGHI,AOML,UNKNOWN,North
2021-11-29T05:00:57Z,2021,5,1,333.209,333.209,62.075,-62.753,-999.0,0.66,-999.0,no,yes,no,300234068345690,SVPGHI,AOML,UNKNOWN,North
2021-11-29T06:00:00Z,2021,6,0,333.25,333.25,62.065,-62.788,-999.0,0.68,-999.0,no,yes,no,300234068345690,SVPGHI,AOML,UNKNOWN,North
2021-11-29T07:00:02Z,2021,7,0,333.2917,333.2917,62.056,-62.824,-999.0,0.67,-999.0,no,yes,no,300234068345690,SVPGHI,AOML,UNKNOWN,North
2021-11-29T08:00:57Z,2021,8,1,333.334,333.334,62.052,-62.856,-999.0,0.67,-999.0,no,yes,no,300234068345690,SVPGHI,AOML,UNKNOWN,North
2021-11-29T09:03:01Z,2021,9,3,333.3771,333.3771,62.048,-62.879,-999.0,0.67,-999.0,no,yes,no,300234068345690,SVPGHI,AOML,UNKNOWN,North
2021-11-29T10:01:03Z,2021,10,1,333.4174,333.4174,62.046,-62.895,-999.0,0.66,-999.0,no,yes,no,300234068345690,SVPGHI,AOML,UNKNOWN,North
2021-11-29T10:59:57Z,2021,11,0,333.4583,333.4583,62.048,-62.903,-999.0,0.64,-999.0,no,yes,no,300234068345690,SVPGHI,AOML,UNKNOWN,North
2021-11-29T12:00:00Z,2021,12,0,333.5,333.5,62.047,-62.909,-999.0,0.65,-999.0,no,yes,no,300234068345690,SVPGHI,AOML,UNKNOWN,North
2021-11-29T13:00:02Z,2021,13,0,333.5417,333.5417,62.046,-62.924,-999.0,0.65,-999.0,no,yes,no,300234068345690,SVPGHI,AOML,UNKNOWN,North
2021-11-29T13:59:57Z,2021,14,0,333.5833,333.5833,62.042,-62.943,-999.0,0.65,-999.0,no,yes,no,300234068345690,SVPGHI,AOML,UNKNOWN,North
2021-11-29T15:02:00Z,2021,15,2,333.6264,333.6264,62.037,-62.964,-999.0,0.65,-999.0,no,yes,no,300234068345690,SVPGHI,AOML,UNKNOWN,North
2021-11-29T16:00:02Z,2021,16,0,333.6667,333.6667,62.029,-62.99,-999.0,0.65,-999.0,no,yes,no,300234068345690,SVPGHI,AOML,UNKNOWN,North
2021-11-29T17:00:57Z,2021,17,1,333.709,333.709,62.02,-63.021,-999.0,0.65,-999.0,no,yes,no,300234068345690,SVPGHI,AOML,UNKNOWN,North
2021-11-29T18:00:00Z,2021,18,0,333.75,333.75,62.009,-63.056,-999.0,0.65,-999.0,no,yes,no,300234068345690,SVPGHI,AOML,UNKNOWN,North
2021-11-29T19:00:02Z,2021,19,0,333.7917,333.7917,62.0,-63.091,-999.0,0.65,-999.0,no,yes,no,300234068345690,SVPGHI,AOML,UNKNOWN,North
2021-11-29T19:59:57Z,2021,20,0,333.8333,333.8333,61.99,-63.12,-999.0,0.64,-999.0,no,yes,no,300234068345690,SVPGHI,AOML,UNKNOWN,North
2021-11-29T21:00:00Z,2021,21,0,333.875,333.875,61.982,-63.141,-999.0,0.65,-999.0,no,yes,no,300234068345690,SVPGHI,AOML,UNKNOWN,North
2021-11-29T22:03:56Z,2021,22,4,333.9194,333.9194,61.977,-63.157,-999.0,0.65,-999.0,no,yes,no,300234068345690,SVPGHI,AOML,UNKNOWN,North
2021-11-29T22:59:57Z,2021,23,0,333.9583,333.9583,61.974,-63.163,-999.0,0.65,-999.0,no,yes,no,300234068345690,SVPGHI,AOML,UNKNOWN,North
2021-11-30T00:00:00Z,2021,0,0,334.0,334.0,61.972,-63.161,-999.0,0.64,-999.0,no,yes,no,300234068345690,SVPGHI,AOML,UNKNOWN,North
2021-11-30T01:00:02Z,2021,1,0,334.0417,334.0417,61.966,-63.159,-999.0,0.64,-999.0,no,yes,no,300234068345690,SVPGHI,AOML,UNKNOWN,North
2021-11-30T01:59:57Z,2021,2,0,334.0833,334.0833,61.959,-63.159,-999.0,0.63,-999.0,no,yes,no,300234068345690,SVPGHI,AOML,UNKNOWN,North
2021-11-30T04:00:02Z,2021,4,0,334.1667,334.1667,61.94,-63.174,-999.0,0.47,-999.0,no,yes,no,300234068345690,SVPGHI,AOML,UNKNOWN,North
2021-11-30T04:59:57Z,2021,5,0,334.2083,334.2083,61.93,-63.199,-999.0,0.58,-999.0,no,yes,no,300234068345690,SVPGHI,AOML,UNKNOWN,North
2021-11-30T06:00:00Z,2021,6,0,334.25,334.25,61.922,-63.223,-999.0,0.58,-999.0,no,yes,no,300234068345690,SVPGHI,AOML,UNKNOWN,North
2021-11-30T07:00:02Z,2021,7,0,334.2917,334.2917,61.915,-63.237,-999.0,0.58,-999.0,no,yes,no,300234068345690,SVPGHI,AOML,UNKNOWN,North
2021-11-30T07:59:57Z,2021,8,0,334.3333,334.3333,61.907,-63.248,-999.0,0.57,-999.0,no,yes,no,300234068345690,SVPGHI,AOML,UNKNOWN,North
2021-11-30T09:00:00Z,2021,9,0,334.375,334.375,61.899,-63.256,-999.0,0.56,-999.0,no,yes,no,300234068345690,SVPGHI,AOML,UNKNOWN,North
2021-11-30T10:00:02Z,2021,10,0,334.4167,334.4167,61.895,-63.256,-999.0,0.56,-999.0,no,yes,no,300234068345690,SVPGHI,AOML,UNKNOWN,North
2021-11-30T12:00:00Z,2021,12,0,334.5,334.5,61.887,-63.235,-999.0,0.55,-999.0,no,yes,no,300234068345690,SVPGHI,AOML,UNKNOWN,North
2021-11-30T13:00:02Z,2021,13,0,334.5417,334.5417,61.883,-63.23,-999.0,0.53,-999.0,no,yes,no,300234068345690,SVPGHI,AOML,UNKNOWN,North
2021-11-30T13:59:57Z,2021,14,0,334.5833,334.5833,61.881,-63.227,-999.0,0.51,-999.0,no,yes,no,300234068345690,SVPGHI,AOML,UNKNOWN,North
2021-11-30T15:00:00Z,2021,15,0,334.625,334.625,61.873,-63.245,-999.0,0.5,-999.0,no,yes,no,300234068345690,SVPGHI,AOML,UNKNOWN,North
2021-11-30T16:00:02Z,2021,16,0,334.6667,334.6667,61.874,-63.255,-999.0,0.5,-999.0,no,yes,no,300234068345690,SVPGHI,AOML,UNKNOWN,North
2021-11-30T16:59:57Z,2021,17,0,334.7083,334.7083,61.871,-63.274,-999.0,0.5,-999.0,no,yes,no,300234068345690,SVPGHI,AOML,UNKNOWN,North
2021-11-30T18:00:00Z,2021,18,0,334.75,334.75,61.868,-63.295,-999.0,0.5,-999.0,no,yes,no,300234068345690,SVPGHI,AOML,UNKNOWN,North
2021-11-30T19:01:03Z,2021,19,1,334.7924,334.7924,61.864,-63.318,-999.0,0.48,-999.0,no,yes,no,300234068345690,SVPGHI,AOML,UNKNOWN,North
2021-11-30T19:59:57Z,2021,20,0,334.8333,334.8333,61.859,-63.342,-999.0,0.43,-999.0,no,yes,no,300234068345690,SVPGHI,AOML,UNKNOWN,North
2021-11-30T21:00:00Z,2021,21,0,334.875,334.875,61.854,-63.36,-999.0,0.38,-999.0,no,yes,no,300234068345690,SVPGHI,AOML,UNKNOWN,North
2021-11-30T22:00:02Z,2021,22,0,334.9167,334.9167,61.85,-63.37,-999.0,0.43,-999.0,no,yes,no,300234068345690,SVPGHI,AOML,UNKNOWN,North
2021-11-30T22:59:57Z,2021,23,0,334.9583,334.9583,61.846,-63.371,-999.0,0.4,-999.0,no,yes,no,300234068345690,SVPGHI,AOML,UNKNOWN,North
2021-12-01T00:01:00Z,2021,0,1,335.0007,335.0007,61.843,-63.368,-999.0,0.42,-999.0,no,yes,no,300234068345690,SVPGHI,AOML,UNKNOWN,North
2021-12-01T01:00:02Z,2021,1,0,335.0417,335.0417,61.841,-63.364,-999.0,0.46,-999.0,no,yes,no,300234068345690,SVPGHI,AOML,UNKNOWN,North
2021-12-01T01:59:57Z,2021,2,0,335.0833,335.0833,61.837,-63.361,-999.0,0.48,-999.0,no,yes,no,300234068345690,SVPGHI,AOML,UNKNOWN,North
2021-12-01T03:00:00Z,2021,3,0,335.125,335.125,61.832,-63.371,-999.0,0.44,-999.0,no,yes,no,300234068345690,SVPGHI,AOML,UNKNOWN,North
2021-12-01T04:01:03Z,2021,4,1,335.1674,335.1674,61.828,-63.386,-999.0,0.51,-999.0,no,yes,no,300234068345690,SVPGHI,AOML,UNKNOWN,North
2021-12-01T04:59:57Z,2021,5,0,335.2083,335.2083,61.819,-63.406,-999.0,0.49,-999.0,no,yes,no,300234068345690,SVPGHI,AOML,UNKNOWN,North
2021-12-01T06:00:00Z,2021,6,0,335.25,335.25,61.809,-63.437,-999.0,0.48,-999.0,no,yes,no,300234068345690,SVPGHI,AOML,UNKNOWN,North
2021-12-01T07:00:02Z,2021,7,0,335.2917,335.2917,61.796,-63.469,-999.0,0.47,-999.0,no,yes,no,300234068345690,SVPGHI,AOML,UNKNOWN,North
2021-12-01T07:59:57Z,2021,8,0,335.3333,335.3333,61.784,-63.499,-999.0,0.46,-999.0,no,yes,no,300234068345690,SVPGHI,AOML,UNKNOWN,North
2021-12-01T09:00:00Z,2021,9,0,335.375,335.375,61.772,-63.523,-999.0,0.46,-999.0,no,yes,no,300234068345690,SVPGHI,AOML,UNKNOWN,North
2021-12-01T10:00:02Z,2021,10,0,335.4167,335.4167,61.761,-63.536,-999.0,0.45,-999.0,no,yes,no,300234068345690,SVPGHI,AOML,UNKNOWN,North
2021-12-01T12:04:01Z,2021,12,4,335.5028,335.5028,61.745,-63.536,-999.0,0.42,-999.0,no,yes,no,300234068345690,SVPGHI,AOML,UNKNOWN,North
2021-12-01T13:01:03Z,2021,13,1,335.5424,335.5424,61.743,-63.526,-999.0,0.4,-999.0,no,yes,no,300234068345690,SVPGHI,AOML,UNKNOWN,North
2021-12-01T14:00:57Z,2021,14,1,335.584,335.584,61.739,-63.51,-999.0,0.39,-999.0,no,yes,no,300234068345690,SVPGHI,AOML,UNKNOWN,North
2021-12-01T15:01:00Z,2021,15,1,335.6257,335.6257,61.735,-63.501,-999.0,0.39,-999.0,no,yes,no,300234068345690,SVPGHI,AOML,UNKNOWN,North
2021-12-01T16:01:03Z,2021,16,1,335.6674,335.6674,61.727,-63.499,-999.0,0.41,-999.0,no,yes,no,300234068345690,SVPGHI,AOML,UNKNOWN,North
2021-12-01T17:00:57Z,2021,17,1,335.709,335.709,61.721,-63.502,-999.0,0.41,-999.0,no,yes,no,300234068345690,SVPGHI,AOML,UNKNOWN,North